KB6VSE Weather Reports


time (UTC)temp
C
wind
direction
speed
KPH
gust
KPH
rain 1hr
cm
rain 24hr
cm
rain mn
cm
humidity
%
barometer
mb
20260506103047 12 0 0.0 0.0 0.00 0.00 0.00 86 1020.8
20260506101556 12 0 0.0 0.0 0.00 0.00 0.00 86 1020.6
20260506100051 12 0 0.0 0.0 0.00 0.00 0.00 86 1020.6
20260506094555 12 0 0.0 0.0 0.00 0.00 0.00 86 1020.5
20260506093053 12 0 0.0 0.0 0.00 0.00 0.00 87 1020.4
20260506091546 12 0 0.0 0.0 0.00 0.00 0.00 87 1020.3
20260506090050 12 0 0.0 0.0 0.00 0.00 0.00 87 1020.4
20260506084551 12 0 0.0 0.0 0.00 0.00 0.00 86 1020.3
20260506083050 12 0 0.0 0.0 0.00 0.00 0.00 86 1020.3
20260506081547 12 0 0.0 0.0 0.00 0.00 0.00 85 1020.3
20260506073048 12 0 0.0 0.0 0.00 0.00 0.00 84 1020.0
20260506071606 12 0 0.0 0.0 0.00 0.00 0.00 84 1019.9
20260506061545 12 0 0.0 0.0 0.00 0.00 0.00 84 1019.4
20260506044553 13 0 0.0 0.0 0.00 0.00 0.00 81 1018.9
20260506043101 13 0 0.0 0.0 0.00 0.00 0.00 81 1018.7
20260506041604 13 0 0.0 0.0 0.00 0.00 0.00 81 1018.4
20260506040050 13 0 0.0 0.0 0.00 0.00 0.00 80 1018.2
20260506034554 13 0 0.0 0.0 0.00 0.00 0.00 80 1018.0
20260506033051 13 0 0.0 0.0 0.00 0.00 0.00 78 1017.8
20260506031547 14 0 0.0 0.0 0.00 0.00 0.00 77 1017.5
20260506030051 15 0 0.0 0.0 0.00 0.00 0.00 76 1017.4
20260506024550 15 0 0.0 0.0 0.00 0.00 0.00 74 1017.0
20260506023051 16 0 0.0 0.0 0.00 0.00 0.00 72 1016.7
20260506021556 16 0 0.0 0.0 0.00 0.00 0.00 71 1016.5
20260506020045 16 0 0.0 1.6 0.00 0.00 0.00 69 1016.3
20260506014551 17 0 0.0 0.0 0.00 0.00 0.00 69 1016.3
20260506013052 17 0 0.0 0.0 0.00 0.00 0.00 69 1016.1
20260506011547 18 0 0.0 0.0 0.00 0.00 0.00 68 1016.0
20260506010051 18 0 0.0 0.0 0.00 0.00 0.00 65 1016.0
20260506004547 19 0 0.0 0.0 0.00 0.00 0.00 63 1015.9
20260506003044 20 0 0.0 0.0 0.00 0.00 0.00 62 1015.7
20260506001606 20 0 0.0 0.0 0.00 0.00 0.00 61 1015.6
20260506000048 21 0 0.0 0.0 0.00 0.00 0.00 60 1015.4
20260505234548 21 0 0.0 1.6 0.00 0.00 0.00 59 1015.4
20260505233053 21 0 0.0 0.0 0.00 0.00 0.00 60 1015.4
20260505231548 22 0 0.0 0.0 0.00 0.00 0.00 62 1015.5
20260505230044 22 0 0.0 0.0 0.00 0.00 0.00 62 1015.4
20260505224548 21 0 0.0 0.0 0.00 0.00 0.00 61 1015.5
20260505223051 21 0 0.0 0.0 0.00 0.00 0.00 63 1015.5
20260505221546 21 0 0.0 0.0 0.00 0.00 0.00 63 1015.9
20260505220050 20 0 0.0 0.0 0.00 0.00 0.00 62 1016.0
20260505214600 20 0 0.0 0.0 0.00 0.00 0.00 66 1016.1
20260505213054 19 0 0.0 1.6 0.00 0.00 0.00 65 1016.3
20260505211545 19 0 0.0 0.0 0.00 0.00 0.00 71 1016.4
20260505210052 18 0 0.0 0.0 0.00 0.00 0.00 70 1016.4
20260505204545 17 0 0.0 0.0 0.00 0.00 0.00 68 1016.5
20260505203049 17 0 0.0 0.0 0.00 0.00 0.00 77 1016.6
20260505201552 17 0 0.0 0.0 0.00 0.00 0.00 74 1016.8
20260505200043 16 0 0.0 0.0 0.00 0.00 0.00 78 1017.0
20260505194545 16 0 0.0 0.0 0.00 0.00 0.00 77 1016.9
20260505193050 16 0 0.0 1.6 0.00 0.00 0.00 79 1017.0
20260505191552 15 0 0.0 0.0 0.00 0.00 0.00 78 1017.0
20260505184601 15 0 0.0 0.0 0.00 0.00 0.00 80 1017.1
20260505183050 15 0 0.0 0.0 0.00 0.00 0.00 81 1017.1
20260505181550 14 0 0.0 0.0 0.00 0.00 0.00 85 1017.0
20260505180053 13 0 0.0 0.0 0.00 0.00 0.00 86 1017.1
20260505174550 13 0 0.0 0.0 0.00 0.00 0.00 85 1017.0
20260505173046 13 0 0.0 0.0 0.00 0.00 0.00 86 1017.0
20260505171544 13 0 0.0 0.0 0.00 0.00 0.00 87 1016.8
20260505170059 12 0 0.0 0.0 0.00 0.00 0.00 89 1016.9
20260505164547 12 0 0.0 0.0 0.00 0.00 0.00 91 1016.8
20260505163055 12 0 0.0 0.0 0.00 0.00 0.00 93 1016.9
20260505161545 12 0 0.0 0.0 0.00 0.00 0.00 94 1016.8
20260505153104 11 0 0.0 0.0 0.00 0.00 0.00 95 1016.8
20260505151547 11 0 0.0 0.0 0.00 0.00 0.00 95 1016.7
20260505150107 11 0 0.0 0.0 0.00 0.00 0.00 95 1016.7
20260505124544 11 0 0.0 0.0 0.00 0.00 0.00 95 1015.9
20260505123104 11 0 0.0 0.0 0.00 0.00 0.00 95 1015.9
20260505121549 11 0 0.0 0.0 0.00 0.00 0.00 95 1015.7
20260505120052 11 0 0.0 0.0 0.00 0.00 0.00 95 1015.8
20260505114553 11 0 0.0 0.0 0.00 0.00 0.00 95 1015.8
20260505113052 11 0 0.0 0.0 0.00 0.00 0.00 95 1015.8
20260505111554 11 0 0.0 0.0 0.00 0.00 0.00 95 1015.8